Regional Weather Roundup
Issued by NWS Mt. Holly, NJ

Home | Current Version | Previous Version | Text Only | Print | Product List | Glossary On
Versions: 1 2 3 4 5 6 7 8 9 10 11 12 13 14 15 16 17 18 19 20 21 22 23 24 25 26 27 28 29 30 31 32 33 34 35 36 37 38 39 40 41 42 43 44 45 46 47 48 49 50
000
ASUS41 KPHI 280712
RWRPHI

REGIONAL WEATHER ROUNDUP
NATIONAL WEATHER SERVICE MOUNT HOLLY NJ
300 AM EDT FRI AUG 28 2015

NOTE:  "FAIR" INDICATES FEW OR NO CLOUDS BELOW 12,000 FEET WITH NO
SIGNIFICANT WEATHER AND/OR OBSTRUCTIONS TO VISIBILITY.

 * = STATION DOES NOT REPORT PRECIPITATION (E.G. RAIN, SNOW, ETC.)
        OR FOG.

NJZ015>026-280800-
SOUTHERN NEW JERSEY

CITY           SKY/WX    TMP DP  RH WIND       PRES   REMARKS
POMONA         CLEAR     60  54  80 NW3       30.14S
MILLVILLE      CLEAR     56  54  93 CALM      30.14S
WRIGHTSTOWN    CLEAR     58  55  89 NW3       30.12S
MOUNT HOLLY    CLEAR     56  54  93 CALM      30.14S
TRENTON        CLEAR     60  55  83 NW3       30.14S

$$
NJZ001>014-280800-
NORTHERN NEW JERSEY

CITY           SKY/WX    TMP DP  RH WIND       PRES   REMARKS
SUSSEX         CLEAR     52  50  93 CALM      30.16S
ANDOVER*         N/A     52  51  97 CALM      30.17S
MORRISTOWN     CLEAR     52  48  87 CALM      30.15R FOG
NEWARK         PTCLDY    66  54  65 NW3       30.13S
TETERBORO      CLEAR     64  53  67 CALM      30.13S
CALDWELL       CLEAR     58  53  84 CALM      30.15S
SOMERVILLE     CLEAR     54  52  93 CALM      30.14R
ALLAIRE*       CLEAR     59  50  72 NW6       30.13S
TOMS RIVER*    CLEAR     52  46  82 CALM      30.14S

$$
PAZ043-044-047-054-055-060>062-066>071-280800-
EASTERN PENNSYLVANIA

CITY           SKY/WX    TMP DP  RH WIND       PRES   REMARKS
PHILADELPHIA   CLEAR     66  54  65 NW6       30.15S
NORTH PHILA    CLEAR     63  53  70 NW5       30.16S
BLUE BELL      CLEAR     55  54  94 CALM      30.15S
DOYLESTOWN     CLEAR     55  54  96 CALM      30.15S
QUAKERTOWN*    PTCLDY    54  52  94 CALM      30.17S
POTTSTOWN      CLEAR     54  53  97 CALM      30.17F
LANCASTER      MOCLDY    57  55  93 E3        30.16F
COATESVILLE    PTCLDY    57  55  94 CALM      30.17F
READING        CLOUDY    58  54  86 N3        30.15F
ALLENTOWN      CLEAR     56  52  86 CALM      30.17R
MOUNT POCONO   CLEAR     50  48  93 NW3       30.19S
HAZLETON       PTCLDY    52  52 100 MISG      30.22S FOG
WILKES BARRE   CLEAR     56  51  84 E6        30.18S

$$
DEZALL-MDZ008-012-015-019-020-280800-
DELAWARE AND EASTERN MARYLAND

CITY           SKY/WX    TMP DP  RH WIND       PRES   REMARKS
WILMINGTON     CLEAR     62  56  80 N3        30.16S
DOVER          CLEAR     63  60  90 NW5       30.12F
GEORGETOWN     CLEAR     60  56  86 CALM      30.14F
PATUXENT       CLEAR     60  58  92 CALM      30.14F
OCEAN CITY     CLEAR     61  58  90 NW6       30.13S
WALLOPS ISLAND CLEAR     63  62  97 N3        30.13F
CAMBRIDGE      CLEAR     59  55  88 CALM      30.13F
SALISBURY      CLEAR     59  58  96 CALM      30.13F

$$
PAZ001-021-NYZ056-072-MDZ011-DCZ001-280800-
OTHER NEARBY LOCATIONS

CITY           SKY/WX    TMP DP  RH WIND       PRES   REMARKS
HARRISBURG     PTCLDY    60  57  89 CALM      30.15F
STATE COLLEGE  MOCLDY    56  55  94 CALM      30.19S
WILLIAMSPORT   CLEAR     58  55  90 CALM      30.17S
BINGHAMTON     MOCLDY    55  53  93 W3        30.18S
NEW YORK CITY  CLEAR     67  53  61 W5        30.16S
BALTIMORE      PTCLDY    58  56  93 CALM      30.15F
WASHINGTON DC  MOCLDY    68  60  75 N3        30.16F

$$


USA.gov is the U.S. government's official web portal to all federal, state and local government web resources and services.